Lexington Weather

Lexington, Massachusetts, USA

78°F
7/25/2024 12:13pm 
  • Lexington Conditions: Mostly cloudy
  • Temperature: 77.9°F / 25.5°CWarmer 1.6°F than last hour.
  • Dew Point: 72.7°FIncreased 0.6°Fsince last hour.
  • Relative Humidity: 84%Decreased 3.0% since last hour.
  • Wind: Wind from W W 3 mph, 10-min avg: 2 mph, gust: 9 mph
  • Barometer: 29.94 in Steady
  • Visibility: 10 miles
  • Rain Today: 0.00 in
  •   

Regional Weather Roundup
for Boston, MA

        
000
ASUS41 KBOX 201310
RWRBOX

REGIONAL WEATHER ROUNDUP
NATIONAL WEATHER SERVICE BOSTON/NORTON MA
900 AM EDT SAT JUL 20 2024

NOTE:  "FAIR" INDICATES FEW OR NO CLOUDS BELOW 12,000 FEET WITH NO 
SIGNIFICANT WEATHER AND/OR OBSTRUCTIONS TO VISIBILITY.

MAZALL-201400-
EASTERN MASSACHUSETTS
  
CITY           SKY/WX    TMP DP  RH WIND       PRES   REMARKS
BOSTON         PTSUNNY   78  58  49 VRB6      30.10F                  
BEVERLY        MOSUNNY   76  58  53 W6        30.09F                  
LAWRENCE       MOSUNNY   74  60  61 W5        30.11F                  
BEDFORD        MOSUNNY   74  61  63 W5        30.09F                  
NORWOOD        MOSUNNY   78  63  59 SW5       30.11F                  
MARSHFIELD     MOSUNNY   77  61  57 CALM      30.10F                  
PLYMOUTH       MOSUNNY   77  60  55 W6        30.11S                  
TAUNTON        MOSUNNY   78  61  55 VRB3      30.11F                  
NEW BEDFORD    MOSUNNY   79  65  62 W6        30.11S                  
$$

MAZALL-201400-
CAPE COD AND THE ISLANDS
  
CITY           SKY/WX    TMP DP  RH WIND       PRES   REMARKS
FALMOUTH       SUNNY     75  63  64 W10       30.13F                  
HYANNIS        MOSUNNY   77  63  61 VRB6      30.10F                  
CHATHAM        MOSUNNY   78  64  61 NW5       30.12S                  
PROVINCETOWN   MOSUNNY   73  65  75 SW7       30.11F                  
NANTUCKET      PTSUNNY   73  68  84 SW12      30.13S                  
MARTHAS VNYRD  MOSUNNY   76  64  66 W7        30.13S                  
$$
 
MAZALL-201400-
CENTRAL AND WESTERN MASSACHUSETTS
  
CITY           SKY/WX    TMP DP  RH WIND       PRES   REMARKS
WORCESTER      MOSUNNY   74  57  55 W5        30.14S                  
FITCHBURG      MOSUNNY   77  61  57 NW6       30.11F                  
ORANGE         MOSUNNY   66  62  87 CALM      30.14S                  
SPRINGFIELD    PTSUNNY   71  61  71 W3        30.09F                  
WESTFIELD      MOSUNNY   71  60  68 CALM      30.12F                  
NORTH ADAMS    MOSUNNY   66  60  81 CALM      30.14S                  
PITTSFIELD     MOSUNNY   64  58  80 CALM      30.14S                  
$$
 
RIZALL-201400-
RHODE ISLAND
  
CITY           SKY/WX    TMP DP  RH WIND       PRES   REMARKS
PROVIDENCE     PTSUNNY   75  65  70 VRB3      30.12S                  
NEWPORT        MOSUNNY   74  62  66 VRB3      30.12F                  
BLOCK ISLAND   MOSUNNY   75  64  68 W9          N/A                   
SMITHFIELD     MOSUNNY   74  65  73 SW3       30.13F                  
WESTERLY       MOSUNNY   75  65  70 SW6       30.12F                  
$$
 
CTZALL-201400-
CONNECTICUT
  
CITY           SKY/WX    TMP DP  RH WIND       PRES   REMARKS
BRADLEY INTL   PTSUNNY   74  62  66 CALM      30.12F                  
HARTFORD       MOSUNNY   75  61  61 CALM      30.11F                  
PLAINVILLE     MOSUNNY   73  63  68 CALM      30.12F                  
BRIDGEPORT     MOSUNNY   74  63  68 SW7       30.12S                  
DANBURY        MOSUNNY   75  62  64 CALM      30.14S                  
GROTON         MOSUNNY   74  68  81 S7        30.11F                  
NEW HAVEN      MOSUNNY   76  64  66 CALM      30.12F                  
CHESTER        MOSUNNY   77  64  65 CALM      30.13F                  
MERIDEN        MOSUNNY   75  62  64 CALM      30.12F                  
WILLIMANTIC    MOSUNNY   70  63  78 CALM      30.13S                  
OXFORD         MOSUNNY   72  62  71 CALM      30.15S                  
$$

MEZ002-015-021-024-NHZ003-005-008-011-012-014-VTZ005-008-201400-
NORTHERN NEW ENGLAND
  
CITY           SKY/WX    TMP DP  RH WIND       PRES   REMARKS
PORTLAND ME    MOSUNNY   74  60  61 SW5       30.07F                  
BANGOR ME      MOSUNNY   74  61  63 S6        30.05S                  
CONCORD NH     MOSUNNY   70  59  68 NE3       30.10F                  
MANCHESTER NH  PTSUNNY   74  58  57 CALM      30.09F                  
NASHUA NH      MOSUNNY   74  64  71 VRB3      30.10F                  
PORTSMOUTH NH  PTSUNNY   74  61  64 W7        30.08F                  
JAFFREY NH     MOSUNNY   72  59  63 S3        30.13F                  
KEENE NH       MOSUNNY   65  59  81 CALM      30.12F                  
BURLINGTON VT  MOSUNNY   71  57  61 S9        30.08F                  
MT. WASHINGTON FOG       45  44  97 W28         N/A  VSB 1/16         
$$

NYZ052-076-201400-
EASTERN NEW YORK
  
CITY           SKY/WX    TMP DP  RH WIND       PRES   REMARKS
ALBANY         PTSUNNY   70  58  65 SE5       30.12S                  
NEW YORK CITY  PTSUNNY   78  60  53 NE7       30.11S                  
$$
 
ANZALL-201400-
MARINE OBSERVATIONS
  
STATION/POSITION TIME  TEMP    WIND        PRES    VSBY  WAVE
                       AIR SEA DIR/SP/G                  HT/PER
                 (UTC) (F)     (DEG/KT/KT) (MB)    (MI)  (FT/S)
BOSTON BUOY      1250   64 63  230/  4/  4 1019.5F         1/ 8
BUZZARDS BAY     1200   69     260/  7/  8 1020.3S
NANTUCKET SOUND  1250   74 76  270/ 12/ 14 1019.3F         1/ 2
MASS BAY-STELLWA 1104   64 62  260/  8/  8 1019.5R  1 7/8  1/ 8
ISLE OF SHOALS   1200   67     270/  9/  9 1018.4R
S OF BLOCK IS    1256      73                N/A           3/ 7
$$

......................KEY.........................
  SKY/WX - SKY CONDITION/PRESENT WEATHER
  TMP    - TEMPERATURE IN FAHRENHEIT
  DWPT   - DEWPOINT IN FAHRENHEIT
  RH     - RELATIVE HUMIDITY IN PERCENT
  WIND   - DIRECTION AND SPEED IN MPH
  PRES   - MEAN SEA LEVEL PRESSURE IN INCHES OF HG
  WCI    - WIND CHILL INDEX
  VSB    - VISIBILITY IN MILES
  HX     - HEAT INDEX
  TC     - TEMPERATURE IN CELSIUS
  VRB    - VARIABLE WIND DIRECTION
  N/A    - NOT AVAILABLE
  
      

Other recent Regional Weather Roundups

Thu Jul 25, 11:10am EDT

Thu Jul 25, 10:10am EDT

Thu Jul 25, 9:10am EDT

Thu Jul 25, 8:10am EDT

Thu Jul 25, 7:10am EDT

Thu Jul 25, 6:10am EDT

Thu Jul 25, 5:10am EDT

Thu Jul 25, 4:10am EDT

Thu Jul 25, 3:10am EDT

Thu Jul 25, 2:10am EDT

Thu Jul 25, 1:10am EDT

Thu Jul 25, 12:10am EDT

Wed Jul 24, 11:10pm EDT

Wed Jul 24, 10:10pm EDT

Wed Jul 24, 9:10pm EDT

Wed Jul 24, 8:10pm EDT

Wed Jul 24, 7:10pm EDT

Wed Jul 24, 6:10pm EDT

Wed Jul 24, 5:10pm EDT

Wed Jul 24, 4:10pm EDT

Wed Jul 24, 3:10pm EDT

Wed Jul 24, 2:10pm EDT

Wed Jul 24, 1:10pm EDT

Wed Jul 24, 12:10pm EDT

Wed Jul 24, 11:10am EDT

Wed Jul 24, 10:10am EDT

Wed Jul 24, 9:10am EDT

Wed Jul 24, 8:10am EDT

Wed Jul 24, 7:10am EDT

Wed Jul 24, 6:10am EDT

Wed Jul 24, 5:10am EDT

Wed Jul 24, 4:10am EDT

Wed Jul 24, 3:10am EDT

Wed Jul 24, 2:10am EDT

Wed Jul 24, 1:10am EDT

Wed Jul 24, 12:10am EDT

Tue Jul 23, 11:10pm EDT

Tue Jul 23, 10:10pm EDT

Tue Jul 23, 9:10pm EDT

Tue Jul 23, 8:10pm EDT

Tue Jul 23, 7:10pm EDT

Tue Jul 23, 6:10pm EDT

Tue Jul 23, 5:10pm EDT

Tue Jul 23, 4:10pm EDT

Tue Jul 23, 3:10pm EDT

Tue Jul 23, 2:10pm EDT

Tue Jul 23, 1:10pm EDT

Tue Jul 23, 12:10pm EDT

Tue Jul 23, 11:10am EDT

Tue Jul 23, 10:10am EDT

Tue Jul 23, 10:10am EDT

Tue Jul 23, 9:10am EDT

Tue Jul 23, 8:10am EDT

Tue Jul 23, 7:10am EDT

Tue Jul 23, 6:10am EDT

Tue Jul 23, 5:10am EDT

Tue Jul 23, 4:10am EDT

Tue Jul 23, 3:10am EDT

Tue Jul 23, 2:10am EDT

Tue Jul 23, 1:10am EDT

Tue Jul 23, 12:10am EDT

Mon Jul 22, 11:10pm EDT

Mon Jul 22, 10:10pm EDT

Mon Jul 22, 9:10pm EDT

Mon Jul 22, 8:10pm EDT

Mon Jul 22, 7:10pm EDT

Mon Jul 22, 6:10pm EDT

Mon Jul 22, 5:10pm EDT

Mon Jul 22, 4:10pm EDT

Mon Jul 22, 3:10pm EDT

Mon Jul 22, 2:10pm EDT

Mon Jul 22, 1:10pm EDT

Mon Jul 22, 12:10pm EDT

Mon Jul 22, 11:10am EDT

Mon Jul 22, 10:10am EDT

Mon Jul 22, 9:10am EDT

Mon Jul 22, 8:10am EDT

Mon Jul 22, 7:10am EDT

Mon Jul 22, 6:10am EDT

Mon Jul 22, 5:10am EDT

Mon Jul 22, 4:10am EDT

Mon Jul 22, 3:10am EDT

Mon Jul 22, 2:10am EDT

Mon Jul 22, 1:10am EDT

Mon Jul 22, 12:10am EDT

Sun Jul 21, 11:10pm EDT

Sun Jul 21, 10:10pm EDT

Sun Jul 21, 9:10pm EDT

Sun Jul 21, 8:10pm EDT

Sun Jul 21, 7:10pm EDT

Sun Jul 21, 6:10pm EDT

Sun Jul 21, 5:10pm EDT

Sun Jul 21, 4:10pm EDT

Sun Jul 21, 3:10pm EDT

Sun Jul 21, 2:10pm EDT

Sun Jul 21, 1:10pm EDT

Sun Jul 21, 12:10pm EDT

Sun Jul 21, 11:10am EDT

Sun Jul 21, 10:10am EDT

Sun Jul 21, 9:10am EDT

Sun Jul 21, 8:10am EDT

Sun Jul 21, 7:10am EDT

Sun Jul 21, 6:10am EDT

Sun Jul 21, 5:10am EDT

Sun Jul 21, 4:10am EDT

Sun Jul 21, 3:10am EDT

Sun Jul 21, 2:10am EDT

Sun Jul 21, 1:10am EDT

Sun Jul 21, 12:10am EDT

Sat Jul 20, 11:10pm EDT

Sat Jul 20, 10:10pm EDT

Sat Jul 20, 9:10pm EDT

Sat Jul 20, 8:10pm EDT

Sat Jul 20, 7:10pm EDT

Sat Jul 20, 6:10pm EDT

Sat Jul 20, 5:10pm EDT

Sat Jul 20, 4:10pm EDT

Sat Jul 20, 3:10pm EDT

Sat Jul 20, 2:10pm EDT

Sat Jul 20, 1:10pm EDT

Sat Jul 20, 12:10pm EDT

Sat Jul 20, 11:10am EDT

Sat Jul 20, 10:10am EDT

Sat Jul 20, 8:10am EDT

Sat Jul 20, 7:10am EDT

Sat Jul 20, 6:10am EDT

Sat Jul 20, 5:10am EDT

Sat Jul 20, 4:10am EDT

Sat Jul 20, 3:10am EDT

Sat Jul 20, 2:10am EDT

Sat Jul 20, 1:10am EDT

Sat Jul 20, 12:10am EDT

Fri Jul 19, 11:10pm EDT

Fri Jul 19, 10:10pm EDT

Fri Jul 19, 9:10pm EDT

Fri Jul 19, 8:10pm EDT

Fri Jul 19, 7:10pm EDT

Fri Jul 19, 6:10pm EDT

Fri Jul 19, 5:10pm EDT

Fri Jul 19, 4:10pm EDT

Fri Jul 19, 3:10pm EDT

Fri Jul 19, 2:10pm EDT

Fri Jul 19, 1:10pm EDT

Fri Jul 19, 12:10pm EDT

Fri Jul 19, 11:10am EDT

Fri Jul 19, 10:10am EDT

Fri Jul 19, 9:10am EDT

Fri Jul 19, 8:10am EDT

Fri Jul 19, 7:10am EDT

Fri Jul 19, 6:10am EDT

Fri Jul 19, 5:10am EDT

Fri Jul 19, 4:10am EDT

Fri Jul 19, 3:10am EDT

Fri Jul 19, 2:10am EDT

Fri Jul 19, 1:10am EDT

Fri Jul 19, 12:10am EDT

Thu Jul 18, 11:10pm EDT

Thu Jul 18, 10:10pm EDT

Thu Jul 18, 9:10pm EDT

Thu Jul 18, 8:10pm EDT

Thu Jul 18, 7:10pm EDT

Thu Jul 18, 6:10pm EDT

Thu Jul 18, 5:10pm EDT

Thu Jul 18, 4:10pm EDT

Thu Jul 18, 3:10pm EDT

Thu Jul 18, 2:10pm EDT

Thu Jul 18, 1:10pm EDT

Thu Jul 18, 12:10pm EDT